Yellow Mule RAWS (NWS)

Jump to table bottom
Date/Time Wind Direction Wind Speed knots Wind Gust knots RH % Accumulated Precip Inches Air Temp Fahrenheit
2022-01-25 22:04 SSW 13 20 67 0.09 10
2022-01-25 21:04 SW 16 19 73 0.09 10
2022-01-25 20:04 SW 14 17 78 0.09 9
2022-01-25 19:04 SW 14 18 80 0.09 8
2022-01-25 18:04 SSW 11 16 81 0.09 8
2022-01-25 17:04 SW 10 17 80 0.09 10
2022-01-25 16:04 SW 14 17 77 0.09 11
2022-01-25 15:04 SSW 11 16 75 0.09 12
2022-01-25 14:04 SW 6 11 78 0.09 13
2022-01-25 13:04 SSW 7 10 81 0.09 13
2022-01-25 12:04 WSW 3 6 81 0.08 12
2022-01-25 11:04 NNW 3 4 81 0.08 13
2022-01-25 10:04 N 3 6 84 0.08 11
2022-01-25 09:04 0 9 84 0.08 6
2022-01-25 08:04 NNW 6 12 85 0.08 7
2022-01-25 07:04 NNW 7 11 85 0.08 8
2022-01-25 06:04 N 6 15 85 0.08 8
2022-01-25 05:04 N 6 12 85 0.08 8
2022-01-25 04:04 N 10 13 85 0.08 8
2022-01-25 03:04 NNW 9 11 86 0.08 9
2022-01-25 02:04 NNW 7 11 86 0.08 9
2022-01-25 01:04 NNW 8 13 86 0.08 10
2022-01-25 00:04 N 8 17 87 0.08 10
2022-01-24 23:04 N 10 15 87 0.08 11
2022-01-24 22:04 NNE 6 17 88 0.08 12
2022-01-24 21:04 N 11 18 88 0.08 12
2022-01-24 20:04 NNE 6 10 88 0.08 13
2022-01-24 19:04 NNE 5 9 89 0.08 13
2022-01-24 18:04 N 3 6 90 0.08 13
2022-01-24 17:04 NNE 2 4 88 0.08 15
2022-01-24 16:04 N 3 3 83 0.08 16
2022-01-24 15:04 NNE 3 11 83 0.08 16
2022-01-24 14:04 W 10 17 74 0.08 18
2022-01-24 13:04 W 12 18 63 0.08 19
2022-01-24 12:04 WSW 10 17 49 0.08 22
2022-01-24 11:04 WSW 10 17 44 0.08 21
2022-01-24 10:04 SW 10 17 46 0.08 20
2022-01-24 09:04 SW 11 14 48 0.08 17
2022-01-24 08:04 WSW 10 18 47 0.08 16
2022-01-24 07:04 WSW 13 19 45 0.08 17
2022-01-24 06:04 SW 12 16 46 0.08 18
2022-01-24 05:04 WSW 11 14 48 0.08 17
2022-01-24 04:04 WSW 10 16 46 0.08 18
2022-01-24 03:04 WSW 10 17 43 0.08 18
2022-01-24 02:04 WSW 12 16 44 0.08 18